Regional Weather Roundup
Issued by NWS

Home | Current Version | Previous Version | Graphics & Text | Print | Product List | Glossary On
Versions: 1 2 3 4 5 6 7 8 9 10 11 12 13 14 15 16 17 18 19 20 21 22 23 24 25 26 27 28 29 30 31 32 33 34 35 36 37 38 39 40 41 42 43 44 45 46 47 48 49 50
000
ASUS43 KLOT 260903
RWRIL

ILLINOIS REGIONAL WEATHER ROUNDUP
NATIONAL WEATHER SERVICE CHICAGO/ROMEOVILLE IL
300 AM CST SUN FEB 26 2017

NOTE: "FAIR" INDICATES FEW OR NO CLOUDS BELOW 12,000 FEET WITH NO
SIGNIFICANT WEATHER AND/OR OBSTRUCTIONS TO VISIBILITY.

* THESE STATIONS ARE NOT UNDER NWS QUALITY CONTROL. THEY ALSO MAY NOT
  REPORT WEATHER SUCH AS PRECIPITATION OR FOG.

ILZ001-002-007-009-015-016-024-261000-
NORTHWEST ILLINOIS

CITY           SKY/WX    TMP DP  RH WIND       PRES   REMARKS
MOLINE         CLOUDY    29  17  61 S9        29.99F WCI  20
STERLING*      CLEAR     24  21  88 VRB3      30.01F
$$

ILZ003-004-008-010-011-017-018-261000-
NORTH CENTRAL ILLINOIS

CITY           SKY/WX    TMP DP  RH WIND       PRES   REMARKS
ROCKFORD       CLOUDY    26  19  74 S8        30.01F WCI  18
FREEPORT*      CLOUDY    25  19  78 S7        29.99F WCI  17
ROCHELLE*      CLOUDY    24  20  85 S3        30.01F
DE KALB*       CLOUDY    25  20  82 S6        30.01F WCI  18
PERU*          CLEAR     22  18  84 S7        30.04F WCI  13
$$

ILZ005-006-012>014-019>023-261000-
NORTHEAST ILLINOIS

CITY           SKY/WX    TMP DP  RH WIND       PRES   REMARKS
CHICAGO-OHARE  CLOUDY    24  17  74 S6        30.03F WCI  17
CHICAGO-MIDWAY CLOUDY    24  16  71 S6        30.05F WCI  17
AURORA         CLOUDY    25  19  78 S6        30.04F WCI  18
LANSING*       PTCLDY    19  17  93 S6        30.08S WCI  10
JOLIET*        CLOUDY    25  21  84 CALM      30.06F
WAUKEGAN       CLOUDY    22  17  81 SW8       30.01S WCI  12
DUPAGE AIRPORT CLOUDY    23  17  78 S6        30.02F WCI  16
KANKAKEE*      CLOUDY    23  19  84 CALM      30.09S
WHEELING       CLOUDY    23  16  74 S6        30.04F WCI  16
MORRIS*        CLOUDY    24  20  86 CALM      30.04F
ROMEOVILLE*    CLOUDY    24  23  96 SW6       30.05F WCI  17
NORTHERLY ISL    N/A     25  17  72 S5          N/A  WCI  19
$$

LMZ740>746-261000-
SOUTHERN LAKE MICHIGAN

STATION/POSITION SKY/WX   TEMP    WIND        PRES    VSBY  WAVE
                          AIR SEA DIR/SP/G                  HT/PER
                          (F)     (DEG/KT/KT) (MB)    (MI)  (FT/S)
HARRISON CRIB              27     240/  7/ 10   N/A
BURNHAM HARBOR             25      CALM  /  7   N/A
CALUMET HARBOR             25     200/  5/  6 1017.4R
BURNS HARBOR               24     180/  6/  9 1018.6S
MICHIGAN CITY              24     180/ 10/ 10   N/A
$$

ILZ025>027-034>036-040-047-049-050-058-095>099-261000-
WEST-CENTRAL ILLINOIS

CITY           SKY/WX    TMP DP  RH WIND       PRES   REMARKS
QUINCY         CLEAR     29  14  53 S10       30.03F WCI  20
GALESBURG*     CLOUDY    26  20  77 SE7       30.01F WCI  18
MACOMB*        MOCLDY    26  19  76 S8        30.05F WCI  18
JACKSONVILLE*  CLOUDY    28  13  53 S7        30.07F WCI  20
PITTSFIELD*    CLEAR     27  16  64 S8        30.06F WCI  18
$$

ILZ028>032-037-038-041>044-048-051>054-059>061-261000-
CENTRAL ILLINOIS

CITY           SKY/WX    TMP DP  RH WIND       PRES   REMARKS
PONTIAC        CLEAR     24  20  85 S5        30.07F WCI  18
BLOOMINGTON    CLEAR     19  15  84 S7        30.07F WCI  10
DECATUR        CLEAR     20  12  71 S3        30.09F
PEORIA         CLOUDY    25  17  72 S7        30.05F WCI  17
LACON*         CLOUDY    25  18  75 S6        30.04F WCI  18
LINCOLN*       CLEAR     21  16  78 S3        30.08F
SPRINGFIELD    PTCLDY    23  14  68 SE5       30.08F WCI  17
TAYLORVILLE    CLEAR     19  15  84 SE5       30.09F WCI  12
$$

ILZ033-039-045-046-055>057-062-063-261000-
EAST-CENTRAL ILLINOIS

CITY           SKY/WX    TMP DP  RH WIND       PRES   REMARKS
CHAMPAIGN      CLEAR     18  12  77 S6        30.09F WCI  10
RANTOUL*       PTCLDY    22  18  83 CALM      30.09S
MATTOON        CLEAR     23  15  71 CALM      30.10F
PARIS*         CLEAR     19  15  83 SW3       30.13S
$$

ILZ079-100>102-261000-
SOUTHWEST ILLINOIS

CITY           SKY/WX    TMP DP  RH WIND       PRES   REMARKS
ALTON          PTCLDY    20  16  84 SE5       30.12R WCI  13
BELLEVILLE     CLEAR     22  19  86 CALM      30.12S
CAHOKIA*       CLEAR     23  15  71 CALM      30.13R
SPARTA*        CLEAR     26  15  62 CALM      30.15S
$$

ILZ064>066-069>071-074>076-080>082-084>086-088>090-092>094-261000-
SOUTH-CENTRAL ILLINOIS

CITY           SKY/WX    TMP DP  RH WIND       PRES   REMARKS
CARBONDALE     CLEAR     22  19  89 S3        30.16R
CAIRO*         CLEAR     24  18  79 CALM      30.18R
EFFINGHAM*     CLEAR     21  19  92 CALM      30.15R
MARION         CLEAR     23  18  80 S3        30.17S
MT. VERNON     CLEAR     17  16  95 CALM      30.15S
CENTRALIA*     CLEAR     23  19  85 SE3       30.13S
SALEM*         CLEAR     25  19  78 CALM      30.13S
METROPOLIS*    CLEAR     23  21  91 CALM      30.19S
$$

ILZ067-068-072-073-078-083-087-091-261000-
SOUTHEAST ILLINOIS

CITY           SKY/WX    TMP DP  RH WIND       PRES   REMARKS
LAWRENCEVILLE  PTCLDY    24  18  77 SE3       30.15F
FLORA*         PTCLDY    23  18  83 CALM      30.15S
FAIRFIELD*     CLEAR     24  17  75 CALM      30.14S
HARRISBURG*    CLEAR     25  23  92 CALM      30.18R
ROBINSON*      PTCLDY    20  16  86 SE3       30.15F
CARMI*         CLEAR     22  19  87 CALM      30.16R
$$

ABBREVIATIONS USED IN REMARKS
   TC - TEMPERATURE IN CELSIUS
  WCI - WIND CHILL INDEX
   HX - HEAT INDEX
  VSB - VISIBILITY
$$





USA.gov is the U.S. government's official web portal to all federal, state and local government web resources and services.